Valparaiso, IN

8:06 AM CDT on October 20, 2017 (GMT -0500)
Porter County Municipal

Weather History for KVPZ - February, 2012

Change the Weather History Date:

Sunday, February 26, 2012

  Actual Average Record
Temperature  
Mean Temperature 34 °F 31 °F  
Max Temperature 49 °F 39 °F 63 °F (2000)
Min Temperature 19 °F 23 °F 1 °F (2014)
Degree Days  
Heating Degree Days 31 34  
Month to date heating degree days 881 982  
Since 1 July heating degree days 4667  
Cooling Degree Days 0 0  
Month to date cooling degree days 0 0  
Year to date cooling degree days 0 0  
Moisture  
Dew Point 23 °F    
Average Humidity 62    
Maximum Humidity 88    
Minimum Humidity 43    
Precipitation  
Precipitation 0.00 in 0.05 in 1.13 in (2009)
Month to date precipitation 1.12 1.31  
Year to date precipitation 2.66 3.06  
Sea Level Pressure  
Sea Level Pressure 30.19 in    
Wind  
Wind Speed 11 mph (SSE)    
Max Wind Speed 24 mph    
Max Gust Speed 30 mph    
Visibility 10 miles    
Events      
T = Trace of Precipitation, MM = Missing Value Source: NWS Daily Summary

Daily Weather History Graph

Daily Weather History Graph

Search for Another Location

Airport or City:

Trip Planner

Search our weather history database for the weather conditions in past years. The results will help you decide how hot, cold, wet, or windy it might be!

Date:

Astronomy

Feb. 26, 2012 Rise Set
Actual Time 6:28 AM CST 5:34 PM CST
Civil Twilight 6:00 AM CST 6:02 PM CST
Nautical Twilight 5:28 AM CST 6:34 PM CST
Astronomical Twilight 4:56 AM CST 7:06 PM CST
Moon 8:18 AM CST (2/26) 10:36 PM CST (2/26)
Length of Visible Light 12h 02m
Length of Day
11h 06m
Waxing Crescent, 21% of the Moon is Illuminated
Feb 26
Waxing Crescent
Feb 29
First Quarter
Mar 8
Full
Mar 14
Last Quarter
Mar 22
New

Hourly Weather History & Observations

Time (CST) Temp. Windchill Dew Point Humidity Pressure Visibility Wind Dir Wind Speed Gust Speed Precip Events Conditions
1:53 AM 21.0 °F - 16.0 °F 81% 30.36 in 10.0 mi Calm Calm - N/A   Clear
2:53 AM 19.0 °F 12.3 °F 16.0 °F 88% 30.34 in 10.0 mi ESE 4.6 mph - N/A   Clear
3:53 AM 21.0 °F 13.4 °F 16.0 °F 81% 30.35 in 10.0 mi SE 5.8 mph - N/A   Clear
4:53 AM 21.9 °F 13.4 °F 16.0 °F 78% 30.35 in 10.0 mi SE 6.9 mph - N/A   Clear
5:53 AM 21.9 °F 11.0 °F 17.1 °F 82% 30.33 in 10.0 mi SSE 10.4 mph - N/A   Clear
6:53 AM 21.9 °F 11.0 °F 17.1 °F 82% 30.32 in 10.0 mi SSE 10.4 mph - N/A   Clear
7:53 AM 26.1 °F 16.8 °F 19.0 °F 75% 30.31 in 10.0 mi SSE 9.2 mph - N/A   Clear
8:53 AM 30.0 °F 19.5 °F 19.9 °F 66% 30.28 in 10.0 mi SSE 13.8 mph 20.7 mph N/A   Clear
9:53 AM 34.0 °F 24.6 °F 21.9 °F 61% 30.25 in 10.0 mi South 13.8 mph 25.3 mph N/A   Clear
10:53 AM 37.9 °F 28.9 °F 23.0 °F 55% 30.23 in 10.0 mi South 16.1 mph 25.3 mph N/A   Clear
11:53 AM 42.1 °F 33.6 °F 23.0 °F 47% 30.19 in 10.0 mi South 18.4 mph 26.5 mph N/A   Clear
12:53 PM 43.0 °F 34.8 °F 24.1 °F 47% 30.14 in 10.0 mi South 18.4 mph 28.8 mph N/A   Clear
1:53 PM 46.0 °F 38.3 °F 26.1 °F 46% 30.10 in 10.0 mi South 20.7 mph 27.6 mph N/A   Clear
2:53 PM 48.0 °F - 27.0 °F 44% 30.04 in 10.0 mi South 20.7 mph 29.9 mph N/A   Clear
3:53 PM 48.9 °F - 27.0 °F 43% 30.07 in 10.0 mi South 13.8 mph 25.3 mph N/A   Clear
4:53 PM 46.9 °F - 27.0 °F 46% 30.07 in 10.0 mi South 13.8 mph - N/A   Clear
5:53 PM 43.0 °F 38.2 °F 27.0 °F 53% 30.09 in 10.0 mi South 8.1 mph - N/A   Clear
6:53 PM 41.0 °F 35.2 °F 27.0 °F 57% 30.09 in 10.0 mi South 9.2 mph - N/A   Clear
7:53 PM 41.0 °F 35.2 °F 26.1 °F 55% 30.08 in 10.0 mi South 9.2 mph - N/A   Clear
8:53 PM 39.9 °F 33.9 °F 26.1 °F 58% 30.07 in 10.0 mi South 9.2 mph - N/A   Clear
9:53 PM 39.0 °F 33.4 °F 26.1 °F 60% 30.07 in 10.0 mi South 8.1 mph - N/A   Clear
10:53 PM 39.9 °F 34.5 °F 26.1 °F 58% 30.08 in 10.0 mi SSW 8.1 mph - N/A   Clear
11:53 PM 39.0 °F 33.4 °F 27.0 °F 62% 30.10 in 10.0 mi WSW 8.1 mph - N/A   Mostly Cloudy